Terminal Aerodrome Forecast
Issued by NWS Denver/Boulder, CO

Home | Current Version | Previous Version | Text Only | Print | Product List | Glossary On
Versions: 1 2 3 4 5 6 7 8 9 10 11 12 13 14 15 16 17 18 19 20 21 22 23 24 25 26 27 28 29 30 31 32 33 34 35 36 37 38 39 40 41 42 43 44 45 46 47 48 49 50
000
FTUS45 KBOU 032236 AAD
TAFDEN
TAF AMD
KDEN 032236Z 0323/0424 01016G25KT P6SM VCTS SCT060CB BKN090
      TEMPO 0323/0402 VRB20G30KT -TSRA BKN060CB
     FM040200 01012KT P6SM -SHRA SCT030 OVC050
     FM040500 03009KT P6SM -SHRA SCT020 OVC040
      TEMPO 0406/0409 2SM -RA BR BKN020
     FM040900 05005KT 2SM -SHRA BR BKN008 OVC012
     FM041300 05006KT 4SM BR VCSH SCT010 BKN015 OVC020
     FM042000 08007KT P6SM VCTS BKN030CB
      TEMPO 0420/0424 3SM -TSRA BKN020CB=

USA.gov is the U.S. government's official web portal to all federal, state and local government web resources and services.